Spokane Felts, WA
on Sunday, December 30, 2012

Sunday
Previous Day Next Day
Daily Summary
 ActualAverageRecord
Temperature
Mean Temperature °F 29°F  
Max Temperature 28°F 35°F 45°F (1998)
Min Temperature 24°F 24°F 6°F (2010)
Degree Days
Heating Degree Days 39 36  
Month to date heating degree days 855 1059  
Since 1 July heating degree days 2128 2633  
Cooling Degree Days 0 0  
Month to date cooling degree days 0 0  
Year to date cooling degree days 509 406  
Moisture
Dew Point 21°F   
Average Humidity 84    
Maximum Humidity 92    
Minimum Humidity 75    
Precipitation
Precipitation T in 0.07 in 0.40 in (2005)
Month to date precipitation 1.75 2.49  
Year to date precipitation 20.51 17.71  
Wind
Wind Speed 3 mph   
Max Wind Speed 8 mph   
Max Gust Speed 10 mph   
Visibility 8 miles   
Events Snow   

Key: T is trace of precipitation, MM is missing value
Source: NWS Daily Summary
Time(PST)TemperatureDew PointHumidity Pressure Visibility Wind DirectionWind SpeedGust SpeedPrecipitationEvents Conditions
12:53 AM 25.0°F 21.0°F 85% 30.24 in 4.0 miles Calm Calm - N/A   Overcast
1:08 AM 24.8°F 21.2°F 86% 30.17 in 6.0 miles Calm Calm - N/A   Overcast
1:30 AM 24.8°F 21.2°F 86% 30.17 in 6.0 miles Calm Calm - N/A   Overcast
1:53 AM 25.0°F 21.0°F 85% 30.26 in 10.0 miles Calm Calm - N/A   Overcast
2:49 AM 24.8°F 21.2°F 86% 30.21 in 7.0 miles Calm Calm - N/A   Overcast
2:53 AM 25.0°F 21.9°F 88% 30.28 in 6.0 miles West 3.5 mph - N/A   Overcast
3:03 AM 24.8°F 21.2°F 86% 30.21 in 5.0 miles Calm Calm - N/A   Overcast
3:53 AM 25.0°F 21.0°F 85% 30.29 in 7.0 miles Calm Calm - N/A   Overcast
4:53 AM 25.0°F 21.0°F 85% 30.28 in 6.0 miles Calm Calm - N/A   Overcast
5:53 AM 25.0°F 21.0°F 85% 30.29 in 7.0 miles Calm Calm - N/A   Overcast
6:53 AM 25.0°F 19.9°F 81% 30.30 in 10.0 miles SW 4.6 mph - N/A   Overcast
7:53 AM 25.0°F 19.9°F 81% 30.31 in 10.0 miles SW 3.5 mph - N/A   Overcast
8:53 AM 25.0°F 21.0°F 85% 30.33 in 8.0 miles Calm Calm - N/A   Overcast
9:00 AM 24.8°F 21.2°F 86% 30.26 in 9.0 miles WSW 4.6 mph - N/A   Overcast
9:11 AM 24.8°F 19.4°F 80% 30.26 in 10.0 miles WSW 3.5 mph - N/A   Overcast
9:53 AM 26.1°F 19.9°F 78% 30.35 in 10.0 miles SW 4.6 mph - N/A   Overcast
10:53 AM 25.0°F 19.9°F 81% 30.35 in 10.0 miles WSW 4.6 mph - N/A   Overcast
11:46 AM 26.6°F 19.4°F 74% 30.28 in 10.0 miles SW 6.9 mph - N/A   Overcast
11:53 AM 26.1°F 19.9°F 78% 30.34 in 10.0 miles SSW 8.1 mph - N/A   Overcast
12:53 PM 26.1°F 21.0°F 81% 30.34 in 9.0 miles SW 5.8 mph - 0.00 in Snow Light Snow
1:53 PM 27.0°F 21.0°F 78% 30.34 in 9.0 miles SSW 6.9 mph - 0.00 in   Overcast
2:53 PM 27.0°F 21.0°F 78% 30.34 in 10.0 miles South 5.8 mph - N/A   Overcast
3:53 PM 27.0°F 21.9°F 81% 30.35 in 10.0 miles SSW 5.8 mph - N/A   Overcast
4:53 PM 27.0°F 21.9°F 81% 30.35 in 10.0 miles SSW 6.9 mph - N/A   Overcast
5:53 PM 27.0°F 21.9°F 81% 30.36 in 10.0 miles West 5.8 mph - N/A   Overcast
6:35 PM 26.6°F 21.2°F 80% 30.29 in 10.0 miles West 3.5 mph - N/A   Overcast
6:53 PM 27.0°F 21.9°F 81% 30.36 in 10.0 miles West 3.5 mph - N/A   Overcast
7:53 PM 27.0°F 21.9°F 81% 30.36 in 10.0 miles WSW 3.5 mph - N/A   Overcast
8:53 PM 27.0°F 23.0°F 85% 30.35 in 3.0 miles SW 3.5 mph - N/A   Overcast
9:53 PM 27.0°F 24.1°F 89% 30.35 in 5.0 miles Calm Calm - N/A   Overcast
10:53 PM 28.0°F 23.0°F 81% 30.37 in 7.0 miles Calm Calm - N/A   Overcast
11:22 PM 28.4°F 21.2°F 74% 30.30 in 10.0 miles West 4.6 mph - N/A   Overcast
11:53 PM 28.0°F 21.9°F 78% 30.36 in 10.0 miles West 3.5 mph - N/A   Overcast
Moon Phase
Dec. 30 Jan. 04 Jan. 11 Jan. 18 Jan. 26
Sunrise:07:37 AM (PST) Moon Rise:06:54 PM (PST)12/30
Sunset:04:06 PM (PST) Moon Set:08:38 AM (PST)12/30

Copyright © 2014 The Weather Underground, Inc.